Temperature
17 17 17 17 18 18 18 18 16 16 18 18 18 18 18 18 18 18 19 19 18 18 18 18 18 18 18 18 18 18 18 18 17 17 17 17 17 17 17 17 17 17 17
17 17 17 17 17 18 18 17 16 16 18 18 18 18 18 19 19 19 19 18 18 18 18 18 18 18 18 18 18 18 18 18 18 17 17 17 17 17 17 17 17 17 17
17 17 17 16 17 17 17 16 16 17 19 19 18 18 19 19 19 18 19 19 18 18 18 18 18 18 18 18 18 18 18 18 18 17 17 17 17 17 17 17 17 17 17
17 17 17 17 17 17 17 17 16 18 18 18 19 19 19 19 17 18 18 18 18 18 18 18 18 18 18 18 18 18 18 18 18 18 18 17 17 17 17 17 17 17 17
16 16 16 16 16 16 16 16 16 16 17 17 18 18 19 19 19 18 17 19 18 18 18 18 18 18 18 18 18 18 18 18 18 18 18 18 18 17 17 17 17 17 17
16 16 16 16 15 15 16 16 16 16 16 16 16 17 17 18 18 17 16 17 18 17 18 18 17 17 18 18 18 18 18 18 19 19 19 19 18 18 18 17 17 17 17
15 15 15 15 15 15 15 15 15 16 16 16 16 16 16 17 18 17 16 17 17 17 17 18 17 18 18 18 18 19 19 19 20 20 19 19 19 18 18 18 18 17 17
15 15 15 14 14 14 14 14 14 15 16 17 17 16 17 18 18 18 17 16 17 17 17 17 17 18 18 17 17 18 19 20 20 20 20 19 19 18 18 18 18 18 17
15 15 15 14 15 14 14 14 14 14 15 16 16 16 17 18 19 18 17 16 17 17 17 17 18 18 18 17 17 17 18 19 19 19 19 18 18 18 18 18 18 18 17
15 15 14 13 14 14 13 13 13 13 14 15 16 16 16 16 17 17 17 16 17 17 17 17 17 17 17 17 17 17 18 17 17 17 17 17 17 17 17 17 17 17 17
14 14 14 13 13 13 13 13 13 13 13 14 15 16 16 16 15 15 16 17 17 17 17 16 16 17 17 17 17 17 17 17 17 16 16 17 16 16 16 16 17 17 17
15 14 13 13 12 12 12 12 13 13 13 14 14 14 15 16 16 16 16 17 18 18 17 16 16 16 16 16 16 17 16 16 16 16 16 17 17 16 16 16 16 17 17
15 14 14 13 13 12 12 12 12 13 13 13 13 13 14 14 16 17 17 17 17 17 16 15 16 15 15 15 15 16 16 16 16 16 16 16 16 16 16 16 16 16 16
15 15 15 14 13 12 12 13 12 13 13 13 13 14 14 14 14 15 17 17 16 15 15 15 15 15 14 14 15 15 15 15 15 16 16 16 16 16 16 16 16 16 16
16 15 15 14 14 13 12 12 13 13 13 12 13 13 14 14 15 15 16 16 15 15 15 15 14 14 14 14 14 14 14 15 14 15 16 15 15 15 14 15 15 15 15
15 15 15 14 12 12 12 13 13 13 12 12 13 14 14 14 15 15 15 15 15 15 14 14 14 14 14 14 13 13 14 14 15 15 15 15 14 14 14 14 14 14 14
15 14 14 13 12 12 12 13 12 13 13 13 13 13 13 13 14 14 14 14 14 14 14 13 13 13 13 13 13 13 13 14 15 14 13 13 13 13 13 13 13 13 13
13 13 13 13 13 12 12 12 12 12 13 13 13 13 13 13 13 13 13 14 14 14 13 13 12 12 12 12 12 12 12 12 13 12 12 12 12 12 12 12 12 13 13
13 13 13 13 13 12 12 12 12 12 13 13 13 12 13 12 12 12 12 13 13 13 13 13 12 12 12 12 11 11 11 11 12 12 12 12 12 12 12 12 12 13 13
13 13 13 13 13 13 12 12 12 12 13 13 13 13 13 13 13 12 12 12 12 12 12 12 12 12 12 12 12 11 11 11 10 10 11 11 11 11 12 12 12 12 12
13 13 13 13 13 13 13 13 12 12 12 13 13 13 13 13 13 13 12 12 11 11 11 11 12 12 12 13 13 13 12 11 11 11 11 10 10 10 11 11 12 12 12
12 12 12 12 13 13 13 13 12 12 12 12 13 13 13 13 12 12 12 12 11 11 11 12 12 13 13 13 13 13 12 12 11 11 11 10 10 10 10 11 11 11 11
11 12 12 12 12 12 13 12 12 11 12 12 12 12 12 13 12 12 12 12 11 11 12 12 12 12 12 12 12 13 12 13 12 11 11 10 10 10 9 10 10 10 10
10 11 11 11 12 12 12 12 12 11 11 11 12 12 12 12 12 12 11 12 12 12 12 12 12 11 11 11 11 11 11 11 11 11 11 11 11 9 9 9 9 9 9
9 10 11 11 11 11 12 12 11 11 11 11 11 11 11 12 11 11 12 12 12 12 12 12 12 11 11 11 11 11 11 12 12 11 11 12 11 11 9 8 8 8 8
9 9 9 10 10 10 11 12 11 11 11 11 11 11 11 11 12 11 11 12 12 12 11 11 11 11 11 11 11 11 12 13 13 12 10 11 11 11 9 8 8 8 8
Wind_Speed
9 9 9 9 11 12 9 5 6 9 11 12 13 13 14 15 18 15 13 16 16 18 21 23 21 21 22 22 21 20 21 22 23 24 24 24 24 23 23 24 23 21 21
8 10 9 9 10 11 9 2 3 9 16 14 13 15 15 13 16 16 14 15 20 20 21 23 21 20 21 21 21 20 20 21 22 23 24 26 26 25 25 25 26 24 23
10 10 9 10 10 11 8 4 6 10 18 16 16 17 15 15 16 16 14 14 18 19 22 22 22 21 20 21 20 19 19 20 21 23 24 25 27 27 27 27 27 26 25
10 9 8 8 8 9 5 7 10 13 17 16 16 16 15 16 18 14 13 14 16 17 16 21 21 21 22 21 21 20 19 19 20 22 23 24 25 26 27 27 27 27 26
6 6 5 6 6 7 6 7 11 13 14 14 14 15 14 17 16 15 12 12 17 19 16 17 20 19 18 18 19 20 21 20 20 21 22 23 24 24 26 27 27 27 27
2 3 5 6 7 9 9 9 11 12 13 14 15 16 17 19 18 15 17 15 16 20 18 16 18 18 21 20 19 18 19 21 21 23 23 24 24 25 27 27 27 27 27
2 4 7 8 9 10 11 12 13 15 15 15 14 15 18 19 19 15 15 16 16 14 14 17 19 15 16 20 20 19 21 22 23 23 24 24 24 26 27 27 27 28 28
4 5 6 8 10 11 13 14 14 14 15 15 14 14 15 15 18 17 15 15 15 12 13 13 13 12 13 13 13 15 18 20 23 24 23 23 24 24 26 27 28 28 28
6 6 7 9 10 11 12 12 13 15 15 15 15 14 12 13 12 12 13 13 13 11 12 11 11 10 11 11 12 12 15 18 20 23 24 23 24 23 24 26 27 28 28
6 8 8 9 9 10 12 11 10 12 15 15 15 17 19 18 16 10 9 10 11 11 11 10 10 10 10 11 12 6 7 14 14 14 15 16 19 22 23 23 26 26 27
6 7 7 9 10 11 11 13 13 12 13 16 16 16 16 15 17 16 14 12 12 12 11 12 11 10 10 12 11 2 5 6 7 7 7 9 13 19 23 25 25 26 27
6 5 7 9 10 11 12 13 13 15 15 15 15 14 15 14 14 13 16 17 16 11 8 10 9 9 7 5 1 6 7 6 4 3 2 3 4 5 15 21 21 23 25
7 6 6 8 10 12 13 13 12 13 15 16 16 14 15 15 16 15 14 14 13 9 6 7 7 6 6 6 9 9 9 8 7 5 5 6 7 4 1 2 2 6 12
6 6 8 9 11 12 13 13 12 13 14 15 17 17 13 14 14 16 16 14 10 8 10 8 6 6 5 7 11 11 9 7 6 6 7 9 11 11 10 12 9 10 10
6 6 8 10 11 13 13 13 12 14 15 15 16 16 13 12 11 13 14 12 10 10 9 7 6 6 6 9 10 9 7 7 5 8 11 11 13 15 13 14 14 13 13
7 8 9 11 13 13 14 11 12 14 12 12 12 14 13 10 10 11 11 10 11 10 6 5 5 9 8 9 11 10 9 10 9 13 15 15 16 15 14 14 14 13 13
10 10 10 11 13 13 12 11 12 11 9 8 9 8 7 7 8 10 10 9 10 10 7 2 6 10 10 11 9 6 9 12 12 16 16 15 16 16 15 15 15 14 13
13 12 11 10 12 12 11 11 10 8 6 6 5 4 4 4 6 6 7 10 9 10 8 9 8 9 10 10 9 8 7 12 13 15 16 16 16 16 15 16 15 14 14
15 15 13 11 11 10 11 10 9 7 4 5 5 3 3 5 4 5 7 4 3 8 10 10 10 12 11 12 11 11 11 11 12 14 15 15 15 15 15 14 13 14 14
17 17 14 12 10 10 10 10 8 8 5 5 4 5 5 4 3 7 9 9 8 10 10 8 6 10 12 15 13 11 10 10 10 10 13 13 14 14 13 13 11 10 11
15 17 16 13 11 10 8 7 7 8 5 2 2 4 5 5 6 9 9 10 10 9 7 6 4 6 10 12 12 11 11 10 9 8 9 8 9 10 10 11 12 11 13
10 14 17 15 12 10 8 4 7 7 3 2 2 0 4 8 8 10 11 11 9 9 9 7 5 6 8 9 8 10 11 10 9 7 8 8 7 8 8 10 10 12 13
12 11 16 16 14 12 13 11 8 6 4 3 4 1 6 8 10 11 11 11 11 12 9 7 8 8 8 8 7 8 7 6 8 7 6 8 7 9 9 10 11 12 11
12 11 13 16 16 14 16 14 10 10 8 5 4 4 7 8 8 10 10 10 11 9 6 8 7 7 9 8 6 6 7 7 8 5 2 5 6 7 7 9 11 12 12
14 12 10 12 14 14 17 17 13 13 11 9 7 6 6 7 4 4 8 11 11 9 11 15 14 13 13 10 5 5 7 8 7 6 2 3 4 6 5 5 8 10 9
16 15 11 8 9 13 17 19 16 13 11 10 9 6 5 8 5 1 6 9 11 10 11 12 12 12 10 7 2 2 5 7 7 6 2 1 4 4 3 1 3 4 4
Wind_Direction
260 275 280 292 291 288 286 298 288 300 291 276 272 266 259 261 266 266 264 271 261 249 244 240 237 231 228 223 225 230 226 220 214 218 221 220 221 221 220 222 222 220 219
260 267 267 262 264 268 269 254 30 322 289 269 262 267 259 250 255 258 257 264 264 255 253 243 236 231 228 227 225 227 226 223 219 218 221 222 221 221 221 221 223 220 219
272 270 279 277 275 273 258 171 173 239 266 271 267 271 276 268 259 255 257 261 263 246 242 244 236 228 227 234 232 230 223 222 225 226 228 228 226 222 221 220 223 221 219
279 274 270 272 280 280 254 183 194 230 257 267 271 276 267 263 253 261 264 262 266 267 246 245 239 228 224 230 234 233 230 227 229 231 230 229 231 226 224 218 219 222 221
292 275 268 276 281 277 260 227 217 223 242 249 257 263 263 267 264 264 264 267 265 272 269 264 241 228 226 233 236 229 230 230 232 235 232 229 229 227 223 219 218 218 220
291 300 293 293 290 283 277 266 255 239 242 251 257 262 265 263 260 257 254 243 237 241 244 251 249 235 224 226 234 235 237 234 233 233 231 228 224 224 221 217 215 216 217
275 294 298 295 284 281 281 278 269 261 256 252 255 267 265 263 260 254 252 253 248 240 245 247 246 248 238 220 225 230 238 248 249 242 234 229 223 221 219 216 214 215 215
290 288 293 289 288 285 274 264 263 266 264 262 260 265 269 267 259 252 238 243 250 253 251 249 246 247 258 256 250 231 231 242 251 253 248 235 228 225 218 217 214 213 214
284 288 288 287 286 279 275 271 266 262 265 266 260 255 263 259 261 255 239 233 236 235 245 258 257 251 246 254 260 240 214 226 245 252 251 238 227 226 221 220 214 210 212
287 290 287 290 285 276 276 273 261 265 267 266 259 251 249 264 272 272 245 226 218 225 231 231 231 228 241 250 249 261 219 223 242 255 257 245 235 237 237 231 223 214 213
275 286 298 299 290 284 288 286 276 265 259 259 264 264 259 248 247 252 259 249 228 220 218 225 235 239 234 241 250 186 218 217 233 247 258 255 253 252 250 245 236 226 219
292 279 293 299 298 295 288 278 274 269 266 268 269 270 265 260 251 243 248 250 254 248 207 225 230 232 235 226 166 108 118 124 107 94 107 68 41 285 257 243 236 231 224
307 315 308 300 301 299 296 287 278 276 272 266 264 262 260 259 263 255 250 252 253 251 232 231 235 201 197 152 127 112 98 92 96 100 91 92 96 94 73 101 171 218 225
295 305 297 296 294 294 296 293 285 276 272 269 267 264 261 258 254 253 248 242 241 238 222 209 202 191 170 130 117 112 95 77 80 84 86 84 89 88 80 77 72 70 68
267 272 287 294 296 298 299 297 293 287 280 272 271 274 264 252 245 247 250 239 225 226 219 193 173 159 131 127 121 105 89 71 70 84 89 93 92 90 88 87 84 78 75
251 268 281 290 294 295 299 305 284 277 276 278 281 279 274 262 249 241 230 224 218 222 203 183 170 138 108 102 92 87 85 61 57 88 100 97 91 91 89 86 85 81 74
247 252 264 279 288 293 301 299 291 290 292 306 306 295 289 285 266 256 250 238 222 214 194 127 136 120 107 100 97 110 91 73 68 84 93 92 89 85 83 82 77 74 71
250 249 253 264 278 287 293 291 295 294 290 314 339 4 356 318 297 294 268 246 228 207 168 141 138 125 122 119 125 125 106 89 86 88 92 89 84 83 80 77 75 71 67
257 251 249 255 267 276 281 282 287 275 275 293 303 330 340 324 44 55 40 46 121 131 129 135 141 147 143 138 137 124 116 106 100 107 101 92 86 83 82 80 73 64 60
263 252 247 250 252 257 268 269 281 280 266 281 314 336 328 343 38 86 81 70 80 101 113 115 128 146 148 156 142 133 124 113 113 103 94 105 107 103 100 96 88 78 70
277 257 245 238 234 238 243 247 259 262 254 260 27 13 10 24 65 94 107 101 93 97 112 120 138 171 162 161 143 134 123 120 119 121 119 118 111 96 90 82 78 64 58
293 273 246 231 222 224 155 186 252 237 230 145 99 96 116 109 104 99 98 99 115 132 148 153 178 149 120 119 127 138 140 142 128 118 116 102 95 82 69 69 62 58 53
300 293 261 231 218 210 166 179 228 220 210 160 113 70 103 115 133 127 113 96 77 55 64 89 106 124 126 117 137 147 154 149 119 133 133 118 112 97 92 86 79 72 62
292 287 271 239 222 207 176 181 203 224 215 214 153 127 113 129 133 137 134 119 100 73 62 94 97 99 100 105 106 112 118 114 117 133 170 138 128 115 116 101 85 73 70
288 276 260 259 231 208 178 179 196 221 214 204 181 148 143 134 90 139 143 124 107 87 63 74 81 76 67 54 56 142 159 169 148 132 179 150 162 150 127 125 120 117 103
280 282 266 251 253 224 186 183 197 218 199 197 181 149 76 115 124 305 150 136 123 119 115 105 99 96 93 88 67 286 201 185 151 139 100 291 164 182 140 131 113 127 88
Height
1535 1535 1534 1534 1534 1535 1536 1535 1537 1536 1534 1531 1529 1529 1529 1529 1530 1532 1533 1533 1533 1533 1532 1532 1533 1534 1534 1535 1537 1539 1541 1543 1544 1545 1547 1549 1550 1551 1553 1555 1557 1560 1562
1531 1531 1530 1529 1528 1528 1528 1529 1532 1534 1530 1525 1524 1521 1523 1523 1524 1525 1525 1526 1528 1528 1529 1528 1528 1529 1530 1532 1533 1535 1536 1538 1540 1542 1543 1545 1546 1547 1549 1550 1553 1555 1557
1526 1526 1525 1524 1524 1523 1522 1521 1525 1528 1524 1519 1516 1513 1515 1515 1517 1519 1518 1519 1522 1523 1523 1523 1524 1525 1526 1528 1529 1531 1532 1534 1536 1538 1539 1540 1542 1543 1545 1546 1548 1550 1551
1521 1520 1519 1519 1519 1518 1517 1516 1518 1518 1515 1514 1510 1507 1508 1510 1510 1511 1511 1514 1515 1516 1516 1517 1519 1520 1521 1523 1525 1526 1528 1529 1530 1532 1533 1535 1537 1538 1540 1541 1543 1545 1546
1518 1516 1515 1514 1514 1514 1514 1513 1512 1512 1510 1506 1503 1502 1503 1502 1502 1503 1504 1505 1508 1510 1511 1512 1513 1516 1517 1518 1519 1521 1523 1525 1526 1527 1529 1529 1531 1533 1533 1535 1537 1539 1541
1516 1514 1513 1512 1511 1511 1511 1510 1509 1508 1504 1502 1500 1498 1497 1497 1496 1496 1496 1498 1501 1504 1505 1505 1507 1509 1510 1512 1514 1515 1517 1519 1520 1521 1522 1523 1524 1525 1527 1528 1530 1532 1534
1515 1513 1512 1510 1509 1507 1505 1504 1503 1502 1500 1499 1497 1494 1491 1490 1489 1488 1489 1493 1495 1497 1498 1499 1501 1502 1503 1505 1506 1508 1510 1511 1512 1512 1513 1514 1516 1517 1519 1521 1523 1525 1527
1512 1510 1508 1507 1504 1502 1500 1498 1497 1496 1495 1494 1493 1490 1486 1485 1481 1481 1482 1484 1486 1488 1491 1493 1494 1495 1496 1498 1499 1498 1500 1502 1503 1503 1503 1504 1506 1508 1510 1513 1515 1517 1520
1508 1506 1504 1501 1498 1495 1495 1493 1491 1490 1488 1487 1487 1486 1483 1477 1477 1477 1476 1477 1478 1480 1482 1485 1486 1487 1490 1491 1492 1492 1490 1491 1492 1493 1495 1495 1497 1500 1502 1504 1507 1510 1512
1504 1501 1499 1496 1493 1490 1489 1487 1484 1483 1482 1481 1480 1479 1478 1476 1476 1474 1473 1472 1472 1473 1475 1478 1480 1482 1484 1484 1485 1484 1483 1483 1484 1485 1486 1488 1489 1492 1495 1497 1500 1503 1505
1500 1497 1495 1492 1489 1486 1483 1480 1479 1477 1475 1474 1474 1473 1471 1469 1469 1469 1469 1469 1468 1468 1470 1473 1475 1477 1478 1478 1479 1476 1477 1477 1477 1478 1480 1481 1483 1485 1487 1490 1492 1496 1499
1498 1495 1491 1488 1485 1482 1479 1475 1474 1472 1470 1468 1466 1465 1465 1464 1462 1462 1462 1462 1463 1464 1465 1467 1468 1470 1471 1472 1471 1471 1472 1472 1472 1473 1475 1477 1477 1478 1482 1485 1485 1488 1491
1494 1491 1486 1483 1480 1478 1475 1472 1469 1466 1464 1461 1460 1459 1459 1459 1458 1457 1456 1456 1456 1458 1459 1461 1463 1464 1465 1466 1465 1466 1468 1469 1469 1470 1471 1472 1473 1474 1477 1479 1480 1481 1485
1488 1486 1482 1479 1477 1475 1473 1469 1465 1461 1459 1456 1454 1452 1451 1451 1451 1451 1451 1451 1450 1452 1453 1455 1457 1459 1461 1462 1462 1464 1466 1466 1466 1467 1467 1468 1469 1470 1472 1474 1477 1477 1479
1484 1481 1479 1476 1473 1471 1469 1464 1459 1456 1453 1450 1447 1445 1444 1443 1442 1442 1443 1444 1445 1446 1447 1450 1453 1455 1457 1459 1461 1463 1464 1464 1464 1465 1466 1467 1467 1469 1471 1473 1475 1476 1476
1478 1477 1475 1472 1470 1468 1465 1459 1454 1452 1448 1444 1440 1437 1437 1437 1437 1436 1436 1436 1437 1440 1442 1446 1449 1451 1454 1457 1459 1462 1463 1464 1463 1464 1465 1467 1468 1469 1471 1473 1474 1476 1476
1473 1471 1469 1467 1466 1464 1460 1455 1451 1447 1444 1439 1436 1433 1432 1432 1431 1431 1431 1431 1431 1434 1437 1440 1445 1448 1452 1455 1458 1462 1462 1462 1463 1463 1465 1467 1468 1470 1473 1474 1474 1475 1475
1469 1467 1463 1461 1459 1459 1456 1453 1449 1444 1441 1438 1436 1433 1431 1430 1428 1425 1424 1424 1425 1428 1431 1434 1440 1445 1450 1454 1460 1463 1464 1463 1463 1465 1467 1468 1469 1471 1473 1473 1474 1475 1475
1464 1463 1460 1456 1453 1453 1452 1450 1447 1443 1439 1437 1436 1435 1432 1431 1427 1423 1420 1419 1420 1423 1427 1432 1438 1444 1449 1454 1462 1465 1466 1465 1466 1467 1469 1469 1470 1472 1473 1474 1475 1475 1475
1457 1457 1456 1452 1449 1448 1447 1446 1444 1443 1439 1436 1434 1433 1433 1432 1429 1426 1422 1421 1421 1424 1429 1435 1440 1445 1449 1455 1461 1464 1466 1469 1471 1471 1472 1473 1474 1475 1476 1477 1477 1477 1477
1447 1449 1448 1447 1444 1443 1442 1442 1440 1441 1439 1436 1433 1432 1432 1433 1431 1429 1426 1426 1428 1433 1437 1438 1442 1447 1453 1455 1459 1464 1468 1471 1473 1475 1476 1477 1478 1478 1478 1478 1478 1478 1478
1436 1440 1440 1440 1439 1438 1437 1437 1437 1439 1438 1435 1433 1432 1432 1434 1434 1433 1431 1432 1435 1438 1440 1441 1446 1449 1451 1454 1460 1465 1468 1471 1474 1476 1477 1479 1479 1479 1479 1479 1480 1480 1480
1430 1433 1430 1432 1432 1433 1432 1433 1434 1437 1436 1435 1433 1432 1432 1434 1437 1436 1436 1436 1439 1443 1446 1447 1448 1450 1453 1457 1461 1465 1467 1470 1473 1475 1478 1480 1481 1481 1481 1481 1481 1481 1480
1426 1425 1425 1424 1425 1426 1426 1428 1430 1435 1436 1435 1434 1434 1434 1435 1439 1440 1439 1440 1442 1445 1448 1449 1451 1453 1455 1459 1463 1465 1467 1470 1472 1475 1477 1480 1482 1482 1483 1482 1482 1481 1480
1421 1419 1419 1419 1419 1417 1418 1421 1425 1431 1434 1435 1433 1434 1435 1436 1439 1442 1442 1442 1443 1446 1448 1451 1453 1455 1456 1460 1464 1468 1469 1471 1474 1476 1478 1479 1481 1483 1483 1483 1482 1481 1480
1415 1414 1411 1410 1413 1416 1413 1414 1418 1425 1429 1431 1432 1431 1434 1437 1438 1441 1444 1444 1444 1446 1449 1451 1454 1457 1459 1462 1464 1467 1470 1471 1473 1475 1477 1478 1480 1482 1483 1484 1483 1481 1480